Погода в Бююкорхане

Турция     39°46′23″N   28°53′07″E
темп.,
°C
ветер,
м/с
пор.,
м/с
влажн.,
%
обл.,
%
осадки,
мм/ч
давл.,
гПа
погр.,
м
25 февраля, чт
чт2500:00+2с2394100 0.0 103390
03:00+2ссв229386 0.0 1032166
06:00+1ссв229268 0.0 1032115
09:00+1ссв228644 0.0 1033149
12:00+6св23667 0.0 1032756
15:00+9с33615 0.0 1030852
18:00+6ссз35755 0.0 1030473
21:00+3св22893 0.0 103123
26 февраля, пт
пт2600:00+2в12880 0.0 103223
03:00+1в12840 0.0 103122
06:00+1в11790 0.0 103022
09:00+3вюв11670 0.0 102964
12:00+9вюв12480 0.0 1028551
15:00+13с22410 0.0 1025774
18:00+10ссз23630 0.0 1024184
21:00+5ссв22800 0.0 102522
27 февраля, сб
сб2700:00+4вюв11750 0.0 102422
03:00+3вюв11790 0.0 102322
06:00+3вюв12750 0.0 102222
09:00+5вюв12640 0.0 102138
12:00+12зюз00390 0.0 1019380
15:00+15сз32350 0.0 1017802
18:00+11сз34580 0.0 1017281
21:00+6ссз22800 0.0 101922
28 февраля, вс
вс2800:00+4с12800 0.0 102022
03:00+3ссз11860 0.0 102122
06:00+3ссз229430 0.0 1022118
09:00+4сз359464 0.0 1023300
12:00+4ссз3484100 0.1 1023442
15:00+6с4564100 0.3 1023978
18:00+4с566597 0.1 10241007
21:000ссз348867 0.1 1027232
1 марта, пн
пн100:00−1ссз229551 0.0 1028108
03:00−2ссз129655 0.1 102971
06:00−2ссз228940 0.0 1028224
09:00−1с227970 0.0 1029362
12:00+3ссз346098 0.0 10281067
15:00+4ссз775286 0.0 10271376
18:00+1ссз677152 0.0 1027825
21:00−1ссз359258 0.1 1030375